Location: Hurstbourne Priors
(51.2000°N, 1.3667°W)
Time: 18:41:34
(UTC+00:00)

Tiros 1 despin weight - All Passes

Search period start: 19 April 2021 00:00
Search period end: 29 April 2021 00:00
Orbit: 593 x 641 km, 48.2° (Epoch: 18 April)

Date Brightness Start Highest point End Pass type
(mag) Time Alt. Az. Time Alt. Az. Time Alt. Az.
19 Apr - 05:11:53 10° S 05:14:55 18° SE 05:17:57 10° ESE daylight
19 Apr - 06:51:25 10° SW 06:55:45 44° SSE 07:00:02 10° E daylight
19 Apr - 08:32:32 10° W 08:37:00 60° S 08:41:24 10° ESE daylight
19 Apr - 10:14:01 10° W 10:18:10 38° SSW 10:22:17 10° SE daylight
19 Apr - 11:56:44 10° WSW 11:58:50 13° SW 12:00:55 10° SSW daylight
20 Apr - 05:27:05 10° SSW 05:30:54 27° SSE 05:34:42 10° E daylight
20 Apr - 07:07:29 10° WSW 07:11:57 54° S 07:16:20 10° E daylight
20 Apr - 08:48:48 10° W 08:53:14 55° S 08:57:35 10° ESE daylight
20 Apr - 10:30:29 10° W 10:34:16 27° SSW 10:37:59 10° SSE daylight
21 Apr - 04:04:07 10° SSE 04:06:18 13° SE 04:08:29 10° ESE visible
21 Apr - 05:42:45 10° SW 05:46:59 37° SSE 05:51:11 10° E daylight
21 Apr - 07:23:41 10° WSW 07:28:11 60° S 07:32:36 10° E daylight
21 Apr - 09:05:07 10° W 09:09:26 45° SSW 09:13:40 10° SE daylight
21 Apr - 10:47:14 10° WSW 10:50:14 18° SW 10:53:13 10° S daylight
22 Apr - 04:18:46 10° SSW 04:22:14 21° SSE 04:25:40 10° E visible
22 Apr - 05:58:44 10° WSW 06:03:09 48° SSE 06:07:31 10° E daylight
22 Apr - 07:39:57 10° W 07:44:26 58° S 07:48:51 10° ESE daylight
22 Apr - 09:21:30 10° W 09:25:33 33° SSW 09:29:34 10° SE daylight
22 Apr - 11:05:12 10° SW 11:06:06 11° SW 11:07:01 10° SSW daylight
23 Apr - 04:34:12 10° SW 04:38:15 31° SSE 04:42:16 10° E daylight
23 Apr - 06:14:52 10° WSW 06:19:22 57° S 06:23:48 10° E daylight
23 Apr - 07:56:14 10° W 08:00:39 51° SSW 08:05:00 10° ESE daylight
23 Apr - 09:38:02 10° W 09:41:36 23° SSW 09:45:06 10° SSE daylight
24 Apr - 03:10:42 10° S 03:13:35 16° SE 03:16:26 10° ESE visible
24 Apr - 04:50:01 10° SW 04:54:22 42° SSE 04:58:40 10° E daylight
24 Apr - 06:31:05 10° W 06:35:36 60° S 06:40:04 10° ESE daylight
24 Apr - 08:12:34 10° W 08:16:49 40° SSW 08:21:01 10° SE daylight
24 Apr - 09:55:01 10° WSW 09:57:32 15° SW 10:00:01 10° S daylight
25 Apr - 03:25:45 10° SSW 03:29:32 25° SSE 03:33:17 10° E visible
25 Apr - 05:06:04 10° WSW 05:10:33 53° SSE 05:14:59 10° E daylight
25 Apr - 06:47:21 10° W 06:51:51 56° S 06:56:16 10° ESE daylight
25 Apr - 08:28:59 10° W 08:32:55 29° SSW 08:36:47 10° SSE daylight
26 Apr - 02:03:07 10° SSE 02:04:58 12° SE 02:06:48 10° ESE visible
26 Apr - 03:41:22 10° SW 03:45:36 35° SSE 03:49:47 10° E visible
26 Apr - 05:22:14 10° WSW 05:26:47 59° S 05:31:16 10° E daylight
26 Apr - 07:03:39 10° W 07:08:03 47° SSW 07:12:22 10° ESE daylight
26 Apr - 08:45:39 10° W 08:48:54 20° SW 08:52:08 10° S daylight
27 Apr - 02:17:30 10° SSW 02:20:51 20° SE 02:24:12 10° E visible
27 Apr - 03:57:17 10° WSW 04:01:45 47° SSE 04:06:08 10° E visible
27 Apr - 05:38:29 10° W 05:43:01 60° S 05:47:29 10° ESE daylight
27 Apr - 07:20:01 10° W 07:24:12 36° SSW 07:28:18 10° SE daylight
27 Apr - 09:03:04 10° WSW 09:04:48 12° SW 09:06:30 10° SSW daylight
28 Apr - 02:32:50 10° SSW 02:36:51 29° SSE 02:40:51 10° E visible
28 Apr - 04:13:24 10° WSW 04:17:57 56° S 04:22:26 10° E daylight
28 Apr - 05:54:45 10° W 05:59:15 53° SSW 06:03:40 10° ESE daylight
28 Apr - 07:36:30 10° W 07:40:15 25° SSW 07:43:56 10° SSE daylight
